Weather History for LEGR - August, 2014

Change the Weather History Date:

Monday, August 11, 2014

  Actual Average Record
Temperature  
Mean Temperature 78 °F -  
Max Temperature 100 °F 88 °F 105 °F (2012)
Min Temperature 57 °F 57 °F 55 °F (1997)
Cooling Degree Days 14    
Growing Degree Days 28 (Base 50)    
Moisture  
Dew Point 50 °F    
Average Humidity 32    
Maximum Humidity 67    
Minimum Humidity 9    
Precipitation  
Precipitation 0.00 in - - ()
Sea Level Pressure  
Sea Level Pressure 30.00 in    
Wind  
Wind Speed 4 mph ()    
Max Wind Speed 15 mph    
Max Gust Speed -    
Visibility 17.8 miles    
Events      
Averages and records for this station are not official NWS values.
T = Trace of Precipitation, MM = Missing Value Source: Averaged Metar Reports

Daily Weather History Graph

Daily Weather History Graph

Search for Another Location

Airport or City:

Trip Planner

Search our weather history database for the weather conditions in past years. The results will help you decide how hot, cold, wet, or windy it might be!

Date:

Astronomy

Aug. 11, 2014 Rise Set
Actual Time 7:28 AM CEST 9:12 PM CEST
Civil Twilight 7:00 AM CEST 9:40 PM CEST
Nautical Twilight 6:26 AM CEST 10:13 PM CEST
Astronomical Twilight 5:50 AM CEST 10:49 PM CEST
Moon 9:33 PM CEST (8/11) 8:13 AM CEST (8/11)
Length of Visible Light 14h 39m
Length of Day
13h 43m
Full, 99% of the Moon is Illuminated
Aug 11
Full
Aug 17
Last Quarter
Aug 25
New
Sep 2
First Quarter
Sep 9
Full

Hourly Weather History & Observations

Time (CEST) Temp. Heat Index Dew Point Humidity Pressure Visibility Wind Dir Wind Speed Gust Speed Precip Events Conditions
12:00 AM 74 °F - 41 °F 20% 29.95 in 19 mi SSW 3.5 mph - -  
1:00 AM 71 °F - 41 °F 22% 29.97 in 19 mi SW 3.5 mph - -  
2:00 AM 69 °F - 46 °F 32% 29.98 in 19 mi SW 5.8 mph - -  
3:00 AM 67 °F - 48 °F 39% 29.99 in 19 mi East 2.3 mph - -  
4:00 AM 63 °F - 48 °F 47% 30.01 in 19 mi SSW 1.2 mph - -  
5:00 AM 61 °F - 49 °F 55% 30.01 in 19 mi Calm Calm - -  
6:00 AM 59 °F - 47 °F 55% 30.03 in 19 mi Calm Calm - -  
6:30 AM 59.0 °F - 46.4 °F 63% 30.04 in - Calm Calm - N/A   Clear
7:00 AM 58 °F - 47 °F 58% 30.04 in 19 mi WSW 2.3 mph - -  
7:30 AM 59.0 °F - 48.2 °F 67% 30.06 in - Variable 1.2 mph - N/A   Clear
8:00 AM 60 °F - 48 °F 54% 30.04 in 12 mi SW 2.3 mph - -  
8:00 AM 60.8 °F - 48.2 °F 63% 30.06 in - Variable 1.2 mph - N/A   Clear
8:30 AM 64.4 °F - 48.2 °F 56% 30.06 in - Variable 2.3 mph - N/A   Clear
9:00 AM 69 °F - 48 °F 37% 30.02 in 12 mi NNW 1.2 mph - -  
9:00 AM 66.2 °F - 50.0 °F 56% 30.06 in - Variable 1.2 mph - N/A   Clear
9:30 AM 68.0 °F - 48.2 °F 49% 30.09 in - Calm Calm - N/A   Clear
10:00 AM 75 °F - 51 °F 32% 30.01 in 19 mi Calm Calm - -  
10:00 AM 71.6 °F - 51.8 °F 50% 30.09 in - Calm Calm - N/A   Clear
10:30 AM 77.0 °F - 51.8 °F 41% 30.09 in - Calm Calm - N/A   Clear
11:00 AM 80 °F - 52 °F 27% 29.99 in 16 mi NNW 2.3 mph - -  
11:00 AM 77.0 °F - 53.6 °F 44% 30.09 in - Variable 2.3 mph - N/A   Clear
11:30 AM 80.6 °F - 51.8 °F 37% 30.06 in - Calm Calm - N/A   Clear
12:00 PM 85 °F - 50 °F 20% 29.96 in 17 mi NW 2.3 mph - -  
12:00 PM 82.4 °F - 50.0 °F 32% 30.06 in - Variable 2.3 mph - N/A   Clear
12:30 PM 84.2 °F - 50.0 °F 30% 30.06 in - Variable 2.3 mph - N/A   Clear
1:00 PM 91 °F - 50 °F 16% 29.93 in 13 mi West 3.5 mph - -  
1:30 PM 89.6 °F - 50.0 °F 26% 30.06 in - Variable 3.5 mph - N/A   Clear
2:00 PM 96 °F - 49 °F 12% 29.90 in 19 mi WNW 3.5 mph - -  
2:00 PM 93.2 °F - 50.0 °F 23% 30.04 in - Variable 2.3 mph - N/A   Clear
2:30 PM 93.2 °F - 51.8 °F 24% 30.04 in - West 4.6 mph - N/A   Clear
3:00 PM 98 °F - 49 °F 11% 29.87 in 19 mi WNW 5.8 mph - -  
3:00 PM 95.0 °F - 50.0 °F 22% 30.04 in - WNW 4.6 mph - N/A   Clear
3:30 PM 96.8 °F - 50.0 °F 20% 30.01 in - West 8.1 mph - N/A   Clear
4:00 PM 100 °F - 46 °F 9% 29.84 in 19 mi WNW 6.9 mph - -  
4:30 PM 98.6 °F - 48.2 °F 18% 30.01 in - West 9.2 mph - N/A   Clear
5:00 PM 100 °F - 50 °F 11% 29.83 in 19 mi West 11.5 mph - -  
5:00 PM 96.8 °F - 50.0 °F 20% 30.01 in - West 11.5 mph - N/A   Clear
5:30 PM 98.6 °F - 50.0 °F 19% 30.01 in - West 11.5 mph - N/A   Clear
6:00 PM 98 °F - 50 °F 12% 29.83 in 16 mi West 12.7 mph - -  
6:00 PM 96.8 °F - 50.0 °F 20% 30.01 in - West 12.7 mph - N/A   Clear
7:00 PM 96 °F - 49 °F 12% 29.84 in 19 mi West 15.0 mph - -  
7:30 PM 93.2 °F - 50.0 °F 23% 29.98 in - West 13.8 mph - N/A   Clear
8:00 PM 92 °F - 50 °F 15% 29.85 in 19 mi West 13.8 mph - -  
8:00 PM 91.4 °F - 51.8 °F 26% 30.01 in - West 12.7 mph - N/A   Clear
8:30 PM 89.6 °F 87.3 °F 53.6 °F 29% 30.01 in - West 11.5 mph - N/A   Clear
9:00 PM 88 °F - 51 °F 19% 29.88 in 19 mi West 10.4 mph - -  
9:00 PM 87.8 °F - 51.8 °F 29% 30.01 in - West 10.4 mph - N/A   Clear
9:30 PM 84.2 °F - 51.8 °F 33% 30.01 in - West 6.9 mph - N/A   Clear
10:00 PM 82 °F - 51 °F 24% 29.92 in 19 mi WSW 4.6 mph - -  
10:00 PM 82.4 °F - 51.8 °F 35% 30.04 in - West 4.6 mph - N/A   Clear
10:30 PM 80.6 °F 80.3 °F 53.6 °F 39% 30.04 in - WSW 4.6 mph - N/A   Clear
11:00 PM 79 °F - 52 °F 29% 29.96 in 19 mi SW 4.6 mph - -  
11:00 PM 78.8 °F - 53.6 °F 42% 30.04 in - SW 3.5 mph - N/A   Clear
11:30 PM 78.8 °F - 53.6 °F 42% 30.06 in - WSW 3.5 mph - N/A   Clear